Regional Weather Roundup
Issued by NWS

Home | Current Version | Previous Version | Graphics & Text | Print | Product List | Glossary On
Versions: 1 2 3 4 5 6 7 8 9 10 11 12 13 14 15 16 17 18 19 20 21 22 23 24 25 26 27 28 29 30 31 32 33 34 35 36 37 38 39 40 41 42 43 44 45 46 47 48 49 50
000
ASUS43 KMKX 201159
RWRWI

WISCONSIN REGIONAL WEATHER ROUNDUP
NATIONAL WEATHER SERVICE MILWAUKEE/SULLIVAN WI
600 AM CST TUE FEB 20 2018

NOTE: "FAIR" INDICATES FEW OR NO CLOUDS BELOW 12,000 FEET WITH NO
SIGNIFICANT WEATHER AND/OR OBSTRUCTIONS TO VISIBILITY.

WIZ001-002-006>008-014>016-023>028-201300-
NORTHWEST WISCONSIN

CITY           SKY/WX    TMP DP  RH WIND       PRES   REMARKS
SUPERIOR ARPT  LGT SNOW  16  14  90 N9        29.91S VSB 1   WCI   5
6HR MIN TEMP:  16; 6HR MAX TEMP:  22; 6HR PCP:  0.03;

ASHLAND        LGT SNOW  20  19  96 NE10      29.87R FOG     WCI   9
6HR MIN TEMP:  19; 6HR MAX TEMP:  20; 6HR PCP: TRACE;

HAYWARD        LGT SNOW  19  15  84 CALM      29.83R FOG
6HR MIN TEMP:  18; 6HR MAX TEMP:  19; 6HR PCP: TRACE;

SIREN          LGT SNOW  19  17  92 N5        29.85F WCI  12
CUMBERLAND     LGT SNOW  19  16  86 N3        29.83R
RICE LAKE      LGT SNOW  19  18  93 N6        29.82F WCI  11
6HR MIN TEMP:  19; 6HR MAX TEMP:  20;

CHETEK         CLOUDY    20  18  93 CALM      29.83R
LADYSMITH      CLOUDY    21  19  93 NW3       29.81R
6HR MIN TEMP:  19; 6HR MAX TEMP:  21;

EAU CLAIRE     NOT AVBL
MENOMONIE      CLOUDY    22  20  92 NW6       29.83S WCI  14
6HR MIN TEMP:  21; 6HR MAX TEMP:  22; 6HR PCP:  0.01;

NEW RICHMOND   LGT SNOW  19  17  88 N7        29.83F WCI  10
OSCEOLA        FLURRIES  20  20 100 N6        29.87F WCI  13
$$

WIZ003>005-009-010-017-018-201300-
NORTH CENTRAL WISCONSIN

CITY           SKY/WX    TMP DP  RH WIND       PRES   REMARKS
MANITOWISH WTR CLOUDY    19  19 100 CALM      29.77F FOG
ARBOR VITAE    CLOUDY    22  20  93 CALM      29.76F FOG
WOODRUFF       CLOUDY    22  20  93 CALM      29.76F FOG
RHINELANDER    FRZ RAIN  23  23 100 E12       29.75F FOG     WCI  12
6HR MIN TEMP:  21; 6HR MAX TEMP:  23; 6HR PCP: TRACE;

EAGLE RIVER    LGT SNOW  22  22 100 E7        29.75F WCI  13
6HR MIN TEMP:  20; 6HR MAX TEMP:  22;

LAND O LAKES   CLOUDY    21  20  96 E3        29.77F FOG
6HR MIN TEMP:  19; 6HR MAX TEMP:  21;

PHILLIPS       CLOUDY    19  19 100 NE3       29.76F
6HR MIN TEMP:  17; 6HR MAX TEMP:  19;

TOMAHAWK       MIX PCPN  22  21  96 E3        29.76F
MEDFORD        MIX PCPN  25  24  93 SE5       29.74F WCI  20
MERRILL        LGT SNOW  27  26  99 SE7       29.75F WCI  19
6HR MIN TEMP:  23; 6HR MAX TEMP:  27; 6HR PCP:  0.06;

$$

WIZ029-030-035-036-043>047-201300-
CENTRAL WISCONSIN

CITY           SKY/WX    TMP DP  RH WIND       PRES   REMARKS
WAUSAU         FRZ RAIN  28  27  96 E10       29.72F WCI  19
6HR MIN TEMP:  26; 6HR MAX TEMP:  28; 6HR PCP:  0.05;

MOSINEE        FRZ RAIN  28  28 100 E7        29.76F WCI  21
MARSHFIELD     FRZ RAIN  28  28 100 S5        29.76R WCI  23
6HR MIN TEMP:  25; 6HR MAX TEMP:  28; 6HR PCP:  0.06;

STEVENS POINT  MIX PCPN  27  27 100 E7        29.79F WCI  19
WAUPACA        LGT SNOW  32  30  94 N3        29.82F
6HR MIN TEMP:  29; 6HR MAX TEMP:  32; 6HR PCP:  0.04;

WAUTOMA        FRZ RAIN  30  29  96 E8        29.79F FOG     WCI  22
6HR MIN TEMP:  28; 6HR MAX TEMP:  31; 6HR PCP:  0.26;

WISC RAPIDS    FRZ RAIN  30  27  88 SE8       29.75F WCI  22
6HR MIN TEMP:  27; 6HR MAX TEMP:  30; 6HR PCP:  0.12;

CAMP DOUGLAS   MIX PCPN  32  31  99 CALM      29.75R
6HR MIN TEMP:  29; 6HR MAX TEMP:  32; 6HR PCP:  0.21;

$$

WIZ011>013-019>022-031-037>040-048>050-201300-
NORTHEAST WISCONSIN

CITY           SKY/WX    TMP DP  RH WIND       PRES   REMARKS
ANTIGO         MIX PCPN  25  25 100 E5        29.81R WCI  19
SHAWANO        MIX PCPN  31  29  94 CALM      29.85R
6HR MIN TEMP:  29; 6HR MAX TEMP:  31; 6HR PCP:  0.02;

OCONTO         CLOUDY    29  29  98 N5        29.82R WCI  24
STURGEON BAY   FOG       31  31 100 N10       29.80R VSB 1/2 WCI  22
6HR MIN TEMP:  31; 6HR MAX TEMP:  34; 6HR PCP: TRACE;

GREEN BAY      FRZ RAIN  31  29  92 N9        29.85R FOG     WCI  23
6HR MIN TEMP:  30; 6HR MAX TEMP:  31; 6HR PCP:  0.01;

MANITOWOC      MIX PCPN  32  32 100 NW9       29.81R FOG     WCI  24
6HR MIN TEMP:  32; 6HR MAX TEMP:  34; 6HR PCP:  0.01;

APPLETON       RAIN      30  30 100 NW6       29.82R FOG     WCI  24
CLINTONVILLE   LGT SNOW  29  28  96 CALM      29.85R
6HR MIN TEMP:  28; 6HR MAX TEMP:  30; 6HR PCP:  0.07;

OSHKOSH        FRZ RAIN  31  30  96 NW7       29.85R FOG     WCI  24
6HR MIN TEMP:  29; 6HR MAX TEMP:  31; 6HR PCP:  0.14;

$$

WIZ032>034-041-042-053>061-201300-
SOUTHWEST WISCONSIN

CITY           SKY/WX    TMP DP  RH WIND       PRES   REMARKS
LA CROSSE      CLOUDY    32  30  92 N6        29.80S WCI  26
6HR MIN TEMP:  31; 6HR MAX TEMP:  33; 6HR PCP:  0.18;

SPARTA         FLURRIES  30  30  99 W3        29.81R
6HR MIN TEMP:  28; 6HR MAX TEMP:  31; 6HR PCP:  0.13;

VIROQUA        CLOUDY    32  32 100 NW5       29.78R WCI  27
6HR MIN TEMP:  30; 6HR MAX TEMP:  32; 6HR PCP:  0.23;

BOSCOBEL       CLOUDY    34  32  92 NW3       29.78S
6HR MIN TEMP:  33; 6HR MAX TEMP:  35; 6HR PCP:  0.31;

PRAIRIE DU CHI CLOUDY    34  33  96 W8        29.80R WCI  27
PLATTEVILLE    CLOUDY    34  34 100 E10       29.76F WCI  26
$$

WIZ056-057-062-063-064-067-068-201300-
SOUTH CENTRAL WISCONSIN

CITY           SKY/WX    TMP DP  RH WIND       PRES   REMARKS
REEDSBURG      LGT RAIN  31  31 100 E5        29.75F WCI  26
6HR MIN TEMP:  30; 6HR MAX TEMP:  31; 6HR PCP:  0.28;

BARABOO/DELLS  MIX PCPN  31  31  99 E7        29.78F WCI  24
LONE ROCK      LGT RAIN  33  33 100 SE9       29.78F FOG     WCI  25
MINERAL POINT  LGT RAIN  36  36 100 SE13      29.76F VSB 3/4 WCI  27
MADISON        LGT RAIN  32  32 100 E3        29.83R FOG
6HR MIN TEMP:  32; 6HR MAX TEMP:  34; 6HR PCP:  0.30;

MIDDLETON      CLOUDY    34  34 100 SE5       29.80F WCI  30
6HR MIN TEMP:  33; 6HR MAX TEMP:  35; 6HR PCP:  0.29;

WATERTOWN      LGT RAIN  33  33 100 NW18G31   29.86R WCI  22
6HR MIN TEMP:  33; 6HR MAX TEMP:  36; 6HR PCP:  0.30;

MONROE         LGT RAIN  36  36 100 W17G25    29.83R WCI  25
JANESVILLE     RAIN      43  43 100 NW3       29.78R VSB 3/4
$$

WIZ051-052-058>065-066-070>072-201300-
SOUTHEAST WISCONSIN

CITY           SKY/WX    TMP DP  RH WIND       PRES   REMARKS
MILWAUKEE      LGT RAIN  42  41  96 CALM      29.79R FOG
6HR MIN TEMP:  37; 6HR MAX TEMP:  42; 6HR PCP:  0.34;

WAUKESHA       RAIN      43  43 100 SW3       29.80R
MILWAUKEE/TIMM RAIN      37  34  87 CALM      29.80R
RACINE         LGT RAIN  41  41 100 S6        29.81R FOG
6HR MIN TEMP:  37; 6HR MAX TEMP:  41; 6HR PCP:  0.34;

BURLINGTON     LGT RAIN  46  46  98 SW9       29.79R
6HR MIN TEMP:  43; 6HR MAX TEMP:  51; 6HR PCP:  0.26;

KENOSHA        LGT RAIN  55  53  93 SW13G21   29.80R
6HR MIN TEMP:  49; 6HR MAX TEMP:  58; 6HR PCP:  0.52;

FOND DU LAC    FRZ RAIN  32  29  88 NW14G29   29.86R FOG     WCI  22
6HR MIN TEMP:  31; 6HR MAX TEMP:  34; 6HR PCP:  0.12;

SHEBOYGAN      RAIN      33  33 100 CALM      29.79R FOG
6HR MIN TEMP:  33; 6HR MAX TEMP:  35; 6HR PCP:  0.08;

WEST BEND      MIX PCPN  34  34 100 NW6       29.79R WCI  29
JUNEAU         RAIN      32  31  99 CALM      29.78F
$$

LSZ147-162-201300-
LAKE SUPERIOR

STATION/POSITION TIME  TEMP    WIND        PRES    WAVE
                       AIR SEA DIR/SP/G            HT/PER
                 (UTC) (F)     (DEG/KT/KT) (MB)    (FT/S)
DEVILS ISLAND    1100   22      50/ 11/ 13 1013.4F
SAXON HARBOR     1140   21      50/  6/ 12 1010.8F
$$

LMZ867-665-643>646-201300-
LAKE MICHIGAN

STATION/POSITION TIME  TEMP    WIND        PRES    WAVE
                       AIR SEA DIR/SP/G            HT/PER
                 (UTC) (F)     (DEG/KT/KT) (MB)    (FT/S)
NORTHPORT PIER   1140   31                 1008.8S
KEWAUNEE LAKESHO 1130   33     300/  3/  4 1007.5F
SHEBOYGAN LAKESH 1100   33     340/  7/  8 1009.0R
PORT WASHINGTON  1140   36      50/  1/  3 1009.8S
MILWAUKEE LAKESH 1130   37        CALM       N/A
KENOSHA   LAKESH 1100           CALM  /  2 1008.5
$$

TC  - TEMPERATURE IN CELSIUS
VSB - VISIBILITY IN STATUTE MILES
WCI - WIND CHILL INDEX
HX  - HEAT INDEX





USA.gov is the U.S. government's official web portal to all federal, state and local government web resources and services.